Location: Alston School (historical)
(35.5076°N, 89.8251°W)
Time: 06:24:14
(UTC+00:00)

Cosmos 1486 Rocket - Pass Details

Date: 09 December 2025
Orbit: 754 x 780 km, 74.1° (Epoch: 19 January)

Event Time Altitude Azimuth Distance (km) Brightness Sun altitude
Rises 23:06:44 0° 203° (SSW) 3,193 8.1 -4.5°
Reaches altitude 10° 23:09:05 10° 206° (SSW) 2,275 7.3 -5.0°
Maximum altitude 23:14:13 66° 289° (WNW) 831 4.5 -5.9°
Drops below altitude 10° 23:19:24 10° 11° (NNE) 2,303 6.2 -6.9°
Sets 23:21:49 0° 15° (NNE) 3,236 6.9 -7.3°
